This demonstration page uses our WeatherBlox Daily Observations layout. Learn more.

Left ArrowRight Arrow

39.08367, -84.50855

Hourly Observations for December 31, 2014

Temp ( °F °C ) Dew Point ( °F °C ) Humidity (%) Winds ( mph kmh ) Pressure ( in mb ) Visibility ( mi km ) Precip ( " mm )
12:53 am 00:53 Clear 23 -5 17 -8.3 78 78 NW 9 15 30.59 1036 10 16 N/A
1:53 am 01:53 Clear 21 -6.1 14 -10 74 74 WNW 8 13 30.60 1036 10 16 N/A
2:53 am 02:53 Clear 20 -6.7 9 -12.8 62 62 NNW 8 13 30.60 1036 10 16 N/A
3:53 am 03:53 Clear 19 -7.2 11 -11.7 71 71 WNW 5 7 30.62 1037 10 16 N/A
4:53 am 04:53 Clear 17 -8.3 7 -13.9 64 64 NNW 6 9 30.60 1036 10 16 N/A
5:53 am 05:53 Clear 17 -8.3 7 -13.9 64 64 N N/A 30.60 1036 10 16 N/A
6:53 am 06:53 Clear 16 -8.9 7 -13.9 67 67 NW 5 7 30.61 1037 10 16 N/A
7:53 am 07:53 Clear 15 -9.4 7 -13.9 70 70 NW 7 11 30.61 1037 10 16 N/A
8:53 am 08:53 Sunny 17 -8.3 6 -14.4 62 62 W 9 15 30.62 1037 10 16 N/A
9:53 am 09:53 Sunny 18 -7.8 5 -15 57 57 W 6 9 30.61 1037 10 16 N/A
10:53 am 10:53 Sunny 20 -6.7 3 -16.1 48 48 WSW 5 7 30.61 1037 10 16 N/A
11:53 am 11:53 Sunny 22 -5.6 3 -16.1 44 44 VRB 7 11 30.58 1036 10 16 N/A
12:53 pm 12:53 Sunny 25 -3.9 4 -15.6 40 40 SW 7 11 30.54 1034 10 16 N/A
1:53 pm 13:53 Sunny 25 -3.9 4 -15.6 40 40 SW 9 15 30.51 1033 10 16 N/A
2:53 pm 14:53 Sunny 27 -2.8 4 -15.6 37 37 WSW 10 17 30.48 1032 10 16 N/A
3:53 pm 15:53 Sunny 27 -2.8 4 -15.6 37 37 WSW 8 13 30.47 1032 10 16 N/A
4:53 pm 16:53 Sunny 26 -3.3 5 -15 40 40 SSW 12 19 30.46 1031 10 16 N/A
5:53 pm 17:53 Clear 24 -4.4 6 -14.4 46 46 SW 10 17 30.44 1031 10 16 N/A
6:53 pm 18:53 Clear 20 -6.7 5 -15 52 52 SSW 6 9 30.43 1031 10 16 N/A
7:53 pm 19:53 Clear 18 -7.8 6 -14.4 59 59 SSW 7 11 30.42 1030 10 16 N/A
8:53 pm 20:53 Clear 18 -7.8 7 -13.9 62 62 SSW 8 13 30.41 1030 10 16 N/A
9:53 pm 21:53 Clear 21 -6.1 7 -13.9 54 54 SSW 8 13 30.40 1029 10 16 N/A
10:53 pm 22:53 Clear 21 -6.1 6 -14.4 52 52 SSW 8 13 30.38 1029 10 16 N/A
11:53 pm 23:53 Clear 22 -5.6 6 -14.4 50 50 SW 12 19 30.37 1029 10 16 N/A

Powered by AerisWeather